Location: Gro�bocka
(50.8204°N, 11.9702°E)
Time: 01:24:47
(UTC+00:00)

Cosmos 1844 Rocket - Pass Details

Date: 29 October 2020
Orbit: 823 x 846 km, 71.0° (Epoch: 23 November)

Event Time Altitude Azimuth Distance (km) Brightness Sun altitude
Rises 18:25:02 0° 332° (NNW) 3,413 6.4 -24.7°
Reaches altitude 10° 18:27:53 10° 344° (NNW) 2,477 5.4 -25.1°
Enters shadow 18:31:35 25° 23° (NNE) 1,644 4.0 -25.7°
